Probability
0 0 0 0 0 0 0 0 0 0 0 0 0 0 0 0 0 0 0 0 0 0 0 0 0 0 0 0 0 0 0 0 0 0 0 0 0 0 0 0 0 0 0
0 0 0 0 0 0 0 0 0 0 0 0 0 0 0 0 0 0 0 0 0 0 0 0 0 0 0 0 0 0 0 0 0 0 0 0 0 0 0 0 0 0 0
0 0 0 0 0 0 0 0 0 0 0 0 0 0 0 0 0 0 0 0 0 0 0 0 0 0 0 0 0 0 0 0 0 0 0 0 0 0 0 0 0 0 0
0 0 0 0 0 0 0 0 0 0 0 0 0 0 0 0 0 0 0 0 0 0 0 0 0 0 0 0 0 0 0 0 0 0 0 0 0 0 0 0 0 0 0
0 0 0 0 0 0 0 0 0 0 0 0 0 0 0 0 0 0 0 0 0 0 0 0 0 0 0 0 0 0 0 0 0 0 0 0 0 0 0 0 0 0 0
0 0 0 0 0 0 0 0 0 0 0 0 0 0 0 0 0 0 0 0 0 0 0 0 0 0 0 0 0 0 0 0 0 0 0 0 0 0 0 0 0 0 0
0 0 0 0 0 0 0 0 0 0 0 0 0 0 0 0 0 0 0 0 0 0 0 0 0 0 0 0 0 0 0 0 0 0 0 0 0 0 0 0 0 0 0
0 0 0 0 0 0 0 0 0 0 0 0 0 0 0 0 0 0 0 0 0 0 0 0 0 0 0 0 0 0 0 0 0 0 0 0 0 0 0 0 0 0 0
0 0 0 0 0 0 0 0 0 0 0 0 0 0 0 0 0 0 0 0 0 0 0 0 0 0 0 0 0 0 0 0 0 0 0 0 0 0 0 0 0 0 0
0 0 0 0 0 0 0 0 0 0 0 0 0 0 0 0 0 0 0 0 0 0 0 0 0 0 0 0 0 0 0 0 0 0 0 0 0 0 0 0 0 0 0
0 0 0 0 0 0 0 0 0 0 0 0 0 0 0 0 0 0 0 0 0 0 0 0 0 0 0 0 0 0 0 0 0 0 0 0 0 0 0 0 0 0 0
0 0 0 0 0 0 0 0 0 0 0 0 0 0 0 0 0 0 0 0 0 0 0 0 0 0 0 0 0 0 0 0 0 0 0 0 0 0 0 0 0 0 0
0 0 0 0 0 0 0 0 0 0 0 0 0 0 0 0 0 0 0 0 0 0 0 0 0 0 0 0 0 0 0 0 0 0 0 0 0 0 0 0 0 0 0
0 0 0 0 0 0 0 0 0 0 0 0 0 0 0 0 0 0 0 0 0 0 0 0 0 0 0 0 0 0 0 0 0 0 0 0 0 0 0 0 0 0 0
0 0 0 0 0 0 0 0 0 0 0 0 0 0 0 0 0 0 0 0 0 0 0 0 0 0 0 0 0 0 0 0 0 0 0 0 0 0 0 0 0 0 0
0 0 0 0 0 0 0 0 0 0 0 0 0 0 0 0 0 0 0 0 0 0 0 0 0 0 0 0 0 0 0 0 0 0 0 0 0 0 0 0 0 0 0
0 0 0 0 0 0 0 0 0 0 0 0 0 0 0 0 0 0 0 0 0 0 0 0 0 0 0 0 0 0 0 0 0 0 0 0 0 0 0 0 0 0 0
0 0 0 0 0 0 0 0 0 0 0 0 0 0 0 0 0 0 0 0 0 0 0 0 0 0 0 0 0 0 0 0 0 0 0 0 0 0 0 0 0 0 0
0 0 0 0 0 0 0 0 0 0 0 0 0 0 0 0 0 0 0 0 0 0 0 0 0 0 0 0 0 0 0 0 0 0 0 0 0 0 0 0 0 0 0
0 0 0 0 0 0 0 0 0 0 0 0 0 0 0 0 0 0 0 0 0 0 0 0 0 0 0 0 0 0 0 0 0 0 0 0 0 0 0 0 0 0 0
0 0 0 0 0 0 0 0 0 0 0 0 0 0 0 0 0 0 0 0 0 0 0 0 0 0 0 0 0 0 0 0 0 0 0 0 0 0 0 0 0 0 0
0 0 0 0 0 0 0 0 0 0 0 0 0 0 0 0 0 0 0 0 0 0 0 0 0 0 0 0 0 0 0 0 0 0 0 0 0 0 0 0 0 0 0
0 0 0 0 0 0 0 0 0 0 0 0 0 0 0 0 0 0 0 0 0 0 0 0 0 0 0 0 0 0 0 0 0 0 0 0 0 0 0 0 0 0 0
0 0 0 0 0 0 0 0 0 0 0 0 0 0 0 0 0 0 0 0 0 0 0 0 0 0 0 0 0 0 0 0 0 0 0 0 0 0 0 0 0 0 0
0 0 0 0 0 0 0 0 0 0 0 0 0 0 0 0 0 0 0 0 0 0 0 0 0 0 0 0 0 0 0 0 0 0 0 0 0 0 0 0 0 0 0
0 0 0 0 0 0 0 0 0 0 0 0 0 0 0 0 0 0 0 0 0 0 0 0 0 0 0 0 0 0 0 0 0 0 0 0 0 0 0 0 0 0 0
Wind_Speed
12 14 16 16 16 17 18 19 17 16 17 18 17 18 19 19 19 18 17 16 17 15 14 14 15 14 11 11 11 12 12 13 16 17 15 16 19 19 17 17 17 18 17
10 12 14 14 15 16 17 17 17 17 17 17 17 18 19 19 19 19 19 18 17 17 16 15 16 12 15 13 12 14 13 14 15 19 17 16 19 19 19 19 17 16 17
8 11 13 14 15 17 17 16 16 17 17 17 18 19 19 18 19 19 18 18 17 16 15 16 16 15 16 14 14 14 13 13 14 16 18 16 16 16 18 19 19 17 18
8 10 13 13 14 15 15 15 16 16 17 18 18 19 18 17 17 17 17 16 15 15 15 15 15 16 16 16 14 15 14 15 16 16 16 16 15 16 16 15 15 14 15
9 11 12 12 12 13 14 14 15 16 17 17 18 18 18 16 15 17 16 16 16 15 15 15 16 19 21 18 13 14 14 14 14 14 15 15 15 14 13 13 15 15 16
10 11 11 11 11 12 13 14 15 16 16 16 17 18 19 15 23 28 21 16 15 15 15 15 15 18 22 26 27 26 22 17 16 15 15 16 18 17 15 14 15 16 17
11 11 11 10 11 12 12 13 15 15 15 16 17 18 20 21 27 29 30 17 16 15 15 14 12 13 18 14 18 23 23 26 26 19 19 19 19 18 18 20 18 18 17
12 12 10 9 11 12 12 14 14 14 14 15 16 18 19 20 27 29 29 21 16 16 16 15 15 14 13 13 13 15 16 16 18 15 15 17 17 17 16 17 17 17 18
13 12 11 9 11 12 13 14 13 13 14 14 15 17 18 19 26 28 27 15 14 16 15 15 15 14 17 19 15 16 17 14 17 23 24 23 27 27 22 14 14 14 15
14 14 14 13 12 13 13 13 12 12 13 13 14 16 18 18 22 28 28 13 13 12 12 13 18 18 18 19 14 14 15 13 12 14 16 17 17 18 22 14 12 13 14
15 15 15 14 13 13 12 11 10 10 11 12 14 14 15 17 20 26 28 13 12 11 9 9 10 17 19 19 17 13 15 15 13 13 12 12 11 10 10 10 10 11 13
15 15 15 14 12 9 11 10 9 10 11 12 12 13 12 14 18 21 27 24 18 12 9 8 9 14 16 17 14 14 18 17 10 10 11 11 11 10 10 11 12 13 13
16 16 15 14 12 10 10 9 8 9 9 9 9 10 10 9 12 22 24 26 25 14 9 13 13 14 14 12 13 15 14 9 8 9 10 11 10 11 11 11 12 12 14
15 15 14 13 12 10 7 7 8 8 9 9 9 9 9 9 9 10 12 14 19 16 11 12 15 14 11 11 11 9 7 7 8 9 10 10 11 10 10 10 10 10 10
15 14 13 11 11 9 8 7 9 9 9 9 9 9 9 9 12 16 12 10 10 10 8 6 6 6 7 6 6 6 6 6 7 8 9 10 10 10 10 9 9 10 10
13 12 10 9 9 8 8 8 11 14 16 18 18 14 11 14 14 18 21 18 17 16 11 7 7 7 7 6 6 6 6 6 7 7 8 9 10 10 10 10 9 9 10
13 12 10 9 9 8 7 8 8 8 13 18 19 20 19 16 17 17 19 19 18 17 10 8 7 7 6 6 5 6 6 6 6 7 8 9 9 10 10 10 10 9 9
13 12 11 9 9 8 8 7 7 8 7 7 11 18 20 20 19 17 18 16 12 12 8 8 7 6 6 5 5 5 6 6 6 7 8 8 9 9 10 10 10 10 10
12 9 9 9 9 8 8 7 7 8 8 7 6 8 14 17 19 19 17 10 9 9 8 7 7 6 5 5 5 5 6 6 7 7 8 9 8 9 9 10 10 13 12
10 14 13 10 9 8 7 7 7 7 7 7 7 6 6 8 9 10 11 9 8 8 7 7 6 6 5 5 5 5 5 6 7 7 8 8 8 8 10 11 10 10 9
10 11 15 11 9 8 8 8 7 7 7 7 7 7 9 7 7 10 9 9 8 8 7 7 6 6 5 5 5 5 6 6 7 7 7 8 8 9 9 9 10 10 10
9 9 9 9 9 8 8 7 7 7 8 8 7 7 12 9 6 7 8 8 8 7 6 6 5 5 5 5 4 5 5 6 7 7 8 8 8 9 9 9 9 10 9
10 10 10 9 9 11 10 8 7 7 7 7 7 6 6 7 6 6 7 7 6 6 5 5 5 5 4 4 4 5 5 6 7 8 8 8 8 9 9 10 11 11 11
11 11 11 10 9 8 8 8 7 7 7 7 7 6 6 6 6 7 6 6 6 6 5 5 5 6 6 5 4 4 5 7 8 8 8 8 9 9 9 9 10 12 11
11 11 11 10 9 8 8 7 7 7 7 7 6 6 6 6 6 6 6 6 6 6 6 6 4 5 6 7 6 5 8 13 12 8 5 7 9 9 10 11 10 11 11
11 11 10 9 8 8 7 7 6 7 6 6 6 6 6 6 6 6 6 6 6 6 6 5 5 5 5 5 6 8 11 12 12 9 6 6 8 9 10 9 12 11 11
Wind_Direction
234 231 231 232 232 232 233 235 234 231 226 224 219 214 210 205 202 202 205 205 210 216 218 224 231 235 242 245 246 248 249 251 263 275 279 283 283 281 279 275 274 274 274
244 239 239 238 236 235 237 238 235 232 228 224 220 217 213 207 203 202 204 205 209 215 219 223 231 232 238 244 247 250 251 252 260 273 279 281 281 281 280 278 276 273 272
254 246 245 242 239 239 239 237 234 232 228 222 219 216 213 207 204 204 204 206 210 215 218 222 229 231 239 243 247 250 253 255 258 266 274 277 279 278 279 276 274 272 272
264 253 251 248 245 244 243 239 234 230 227 224 221 219 214 208 204 204 203 205 210 216 220 225 229 231 237 245 250 253 255 258 259 263 269 274 277 279 277 277 277 274 273
278 266 262 261 256 250 246 241 235 230 228 224 222 220 216 209 204 201 202 204 209 216 221 227 232 234 238 242 243 249 252 256 262 266 271 277 281 283 283 282 281 282 278
289 278 274 268 260 253 247 242 236 231 228 224 222 220 219 214 210 206 201 204 209 215 222 227 233 240 245 250 254 258 260 264 270 275 280 282 285 288 289 287 285 284 283
296 288 283 275 267 260 253 246 240 234 229 225 222 221 223 220 214 212 208 203 209 215 221 227 230 234 241 244 257 266 271 273 273 274 277 281 287 289 290 286 281 280 281
299 294 289 278 271 267 258 249 242 235 229 225 224 224 225 224 219 217 213 209 215 220 223 227 235 239 239 244 250 258 261 262 264 266 268 274 278 280 279 282 288 286 283
302 301 298 283 274 270 261 254 245 237 232 227 224 224 225 225 221 219 214 212 218 225 227 231 237 244 248 253 256 262 267 266 270 273 274 278 282 288 290 291 289 287 285
308 307 304 298 286 276 269 262 251 239 234 229 227 225 225 225 221 219 215 212 218 223 227 230 236 241 248 253 256 263 271 278 282 284 282 282 282 283 285 281 281 280 282
309 306 303 300 293 285 278 267 255 243 236 231 231 228 226 226 224 220 217 209 214 219 223 226 229 239 248 256 261 264 273 283 287 287 287 285 284 280 277 274 268 268 272
308 305 304 303 300 289 279 269 254 242 237 234 233 231 226 224 224 223 220 215 212 217 222 226 230 238 249 259 265 271 281 290 288 288 288 289 291 292 292 287 279 271 264
307 305 306 306 303 293 281 270 256 240 236 235 231 231 228 219 220 221 222 221 219 216 222 228 234 243 255 264 269 277 284 284 283 285 287 290 293 294 293 288 281 272 265
304 305 306 306 304 298 281 264 253 240 234 233 232 231 230 222 214 212 213 220 223 225 226 231 238 247 254 263 270 273 269 270 279 282 287 291 293 294 293 293 293 291 284
302 302 304 302 301 297 283 266 257 246 238 235 237 234 231 227 218 208 201 202 203 209 205 209 218 228 239 244 251 259 265 271 277 281 287 292 296 297 298 298 293 289 285
300 301 303 303 301 293 289 281 257 252 254 247 243 242 242 242 236 218 212 208 204 201 198 208 219 226 236 245 255 263 268 274 281 286 289 292 296 299 300 299 296 291 289
295 297 298 297 295 293 289 284 285 268 252 250 246 243 239 238 237 226 211 205 204 200 204 212 220 227 233 240 250 261 271 280 286 285 286 292 295 298 300 301 301 297 293
294 293 292 292 292 290 284 278 275 277 275 262 248 244 240 235 229 222 209 195 199 202 207 214 220 224 229 237 246 258 271 281 282 284 289 293 295 298 301 303 303 301 298
293 290 292 292 288 285 281 275 270 266 265 266 262 251 240 231 221 214 202 194 193 199 204 212 217 220 225 233 243 257 269 278 284 289 291 294 297 300 301 302 302 302 301
289 288 291 291 288 282 276 270 265 261 260 258 255 250 235 217 206 200 197 190 194 200 203 208 211 214 220 228 239 253 267 276 285 287 293 298 300 301 301 303 304 304 300
289 289 290 288 282 279 273 267 261 257 254 254 251 244 233 222 205 194 189 189 195 199 201 203 205 207 215 223 236 251 264 277 285 292 296 300 303 303 303 303 304 303 301
284 282 281 280 279 276 271 262 257 252 250 249 249 242 238 230 211 193 187 189 194 197 195 195 200 205 211 220 233 251 267 279 288 295 299 302 304 304 306 306 308 309 306
282 281 280 277 274 274 273 260 250 244 243 241 237 230 227 224 211 193 185 184 183 185 185 190 197 201 206 217 231 247 264 279 290 297 300 304 307 308 309 310 310 311 311
284 282 281 282 278 271 265 259 248 239 234 232 227 223 220 216 204 188 179 174 176 180 182 188 198 204 210 224 237 247 261 278 290 293 294 298 303 307 310 311 310 313 313
286 285 284 283 282 278 268 256 246 235 227 221 218 215 211 205 192 178 172 171 176 181 183 186 190 201 212 228 247 265 280 291 298 306 298 297 303 307 310 311 314 316 316
288 287 287 285 283 278 268 255 242 229 221 213 209 206 201 195 185 175 168 169 173 176 178 184 191 197 212 230 247 269 285 297 306 314 316 306 310 313 319 317 321 319 320